UAE101 OMDW-CYYZ

Flight info

Callsign UAE101
Flight time N/A
Altitude 30000
Route ANVIX R401 GIDIS G783 VAVIM DCT 240831N0552620E 235402N0552202E 234245N0551846E 233741N0543807E DCT ESROM M318 GOLGU M550 RIBOT DCT MIGMA DCT SITUK/N0494F340 M321 KSA T503 ORSAL/N0483F360 T503 OVANO L768 FIRAS R655 KTN/N0468F260 R655 LEBOR UR655 BALMA L620 VESAR UB545 MUT UL619 OSVEL UQ23 OSDAN UQ26 TUDBU DCT ETUBA Q26 UPAMA DCT GIKUN DCT GUPRO DCT INVED DCT MAVIR DCT STEIN DCT BARUG/N0471F380 DCT RENKA L610 STAUB/N0449F240 L610 MAMOR DCT PETIX DCT BOMBI DCT ADKUV DCT SOGRI DCT DENUT L610 KOPUL Q60 OKSAW DCT TEWXI DCT VATRY DCT VENER/M074F380 DCT 5530N02000W 5630N03000W 5630N04000W 56N050W DCT HOIST/N0427F380 DCT SPOTE DCT ROBBE DCT ROSVO IMEBA9
Aircraft B77L/H-SDE1E2E3FGHIJ2J3J4J5M1RWXY/LB1D1

Departure

Time 2026-04-24 12:24
Airport Al Maktoum International Airport (OMDW)

Arrival

Time N/A
Airport Toronto Pearson International Airport (CYYZ)
Time Latitude Longitude Altitude Speed Heading
2026-04-24 11:54 24.89429 55.14438 125 ft 0 kts 300°
2026-04-24 12:10 24.89428 55.14439 125 ft 2 kts 300°
2026-04-24 12:10 24.89415 55.14463 121 ft 4 kts 300°
2026-04-24 12:11 24.89389 55.14511 121 ft 4 kts 314°
2026-04-24 12:11 24.89370 55.14521 121 ft 4 kts 19°
2026-04-24 12:11 24.89348 55.14508 121 ft 2 kts 32°
2026-04-24 12:11 24.89342 55.14504 121 ft 1 kts 31°
2026-04-24 12:14 24.89346 55.14507 121 ft 1 kts 33°
2026-04-24 12:14 24.89354 55.14513 121 ft 1 kts 33°
2026-04-24 12:14 24.89367 55.14522 121 ft 5 kts 33°
2026-04-24 12:14 24.89415 55.14554 121 ft 9 kts 31°
2026-04-24 12:15 24.89466 55.14589 123 ft 9 kts 29°
2026-04-24 12:15 24.89536 55.14634 123 ft 14 kts 31°
2026-04-24 12:15 24.89618 55.14690 124 ft 14 kts 32°
2026-04-24 12:15 24.89700 55.14747 124 ft 14 kts 32°
2026-04-24 12:16 24.89784 55.14802 123 ft 14 kts 31°
2026-04-24 12:16 24.89868 55.14857 123 ft 14 kts 31°
2026-04-24 12:16 24.89949 55.14914 121 ft 14 kts 38°
2026-04-24 12:16 24.89938 55.15010 123 ft 14 kts 121°
2026-04-24 12:17 24.89887 55.15101 125 ft 14 kts 122°
2026-04-24 12:17 24.89836 55.15192 127 ft 14 kts 122°
2026-04-24 12:17 24.89785 55.15284 122 ft 14 kts 120°
2026-04-24 12:17 24.89735 55.15377 129 ft 14 kts 121°
2026-04-24 12:18 24.89685 55.15469 131 ft 14 kts 121°
2026-04-24 12:18 24.89633 55.15560 127 ft 14 kts 122°
2026-04-24 12:18 24.89582 55.15652 133 ft 14 kts 121°
2026-04-24 12:18 24.89532 55.15744 137 ft 14 kts 121°
2026-04-24 12:19 24.89481 55.15837 139 ft 15 kts 123°
2026-04-24 12:19 24.89404 55.15975 140 ft 29 kts 122°
2026-04-24 12:19 24.89285 55.16187 143 ft 32 kts 121°
2026-04-24 12:19 24.89179 55.16381 145 ft 25 kts 121°
2026-04-24 12:20 24.89090 55.16543 147 ft 25 kts 122°
2026-04-24 12:20 24.89025 55.16661 149 ft 15 kts 121°
2026-04-24 12:20 24.88970 55.16759 150 ft 15 kts 122°
2026-04-24 12:20 24.88914 55.16858 153 ft 15 kts 122°
2026-04-24 12:21 24.88860 55.16958 153 ft 15 kts 121°
2026-04-24 12:21 24.88806 55.17057 154 ft 15 kts 121°
2026-04-24 12:21 24.88770 55.17123 155 ft 15 kts 121°
2026-04-24 12:21 24.88715 55.17222 157 ft 15 kts 122°
2026-04-24 12:22 24.88660 55.17321 158 ft 15 kts 121°
2026-04-24 12:22 24.88604 55.17420 159 ft 15 kts 121°
2026-04-24 12:22 24.88597 55.17521 160 ft 12 kts 45°
2026-04-24 12:22 24.88670 55.17572 160 ft 12 kts 32°
2026-04-24 12:23 24.88750 55.17602 159 ft 12 kts 357°
2026-04-24 12:23 24.88833 55.17577 159 ft 12 kts 334°
2026-04-24 12:23 24.88898 55.17487 159 ft 30 kts 301°
2026-04-24 12:23 24.89147 55.17049 154 ft 104 kts 301°
2026-04-24 12:24 24.89641 55.16146 140 ft 169 kts 302°
2026-04-24 12:24 24.90333 55.14897 243 ft 202 kts 305°
2026-04-24 12:24 24.91000 55.13591 988 ft 195 kts 304°
2026-04-24 12:24 24.91655 55.12259 1562 ft 196 kts 307°
2026-04-24 12:25 24.92422 55.10972 1897 ft 211 kts 306°
2026-04-24 12:25 24.93233 55.09575 2208 ft 221 kts 303°
2026-04-24 12:25 24.94061 55.08117 2643 ft 227 kts 301°
2026-04-24 12:25 24.94896 55.06626 3152 ft 230 kts 299°
2026-04-24 12:26 24.95514 55.05034 3590 ft 228 kts 274°
2026-04-24 12:26 24.95260 55.03343 4052 ft 228 kts 243°
2026-04-24 12:26 24.94294 55.01955 4503 ft 231 kts 220°
2026-04-24 12:26 24.92954 55.00944 4987 ft 235 kts 213°
2026-04-24 12:27 24.91491 55.00115 5445 ft 241 kts 196°
2026-04-24 12:27 24.89867 55.00081 5863 ft 249 kts 168°
2026-04-24 12:27 24.88337 55.00997 6357 ft 257 kts 136°
2026-04-24 12:27 24.87291 55.02553 6843 ft 255 kts 132°
2026-04-24 12:28 24.85835 55.03677 6902 ft 260 kts 170°
2026-04-24 12:28 24.84066 55.03598 7169 ft 258 kts 206°
2026-04-24 12:28 24.82674 55.02380 7500 ft 260 kts 237°
2026-04-24 12:28 24.81735 55.00657 7828 ft 269 kts 236°
2026-04-24 12:29 24.80636 54.98972 8354 ft 273 kts 233°
2026-04-24 12:29 24.79483 54.97301 8972 ft 275 kts 233°
2026-04-24 12:29 24.78314 54.95611 9541 ft 279 kts 233°
2026-04-24 12:29 24.77145 54.93912 10163 ft 280 kts 233°
2026-04-24 12:30 24.75949 54.92167 10511 ft 294 kts 233°
2026-04-24 12:30 24.74677 54.90301 10646 ft 315 kts 233°
2026-04-24 12:30 24.73323 54.88309 10800 ft 335 kts 233°
2026-04-24 12:30 24.71889 54.86198 10932 ft 355 kts 233°
2026-04-24 12:31 24.70386 54.83980 11339 ft 366 kts 233°
2026-04-24 12:31 24.68855 54.81719 11905 ft 371 kts 233°
2026-04-24 12:31 24.67327 54.79464 12580 ft 374 kts 233°
2026-04-24 12:31 24.65757 54.77146 13144 ft 379 kts 233°
2026-04-24 12:32 24.64164 54.74794 13652 ft 388 kts 233°
2026-04-24 12:32 24.62557 54.72424 14312 ft 388 kts 233°
2026-04-24 12:32 24.60939 54.70036 14899 ft 390 kts 234°
2026-04-24 12:32 24.59307 54.67630 15383 ft 396 kts 234°
2026-04-24 12:33 24.57653 54.65190 15912 ft 400 kts 234°
2026-04-24 12:33 24.55982 54.62730 16519 ft 402 kts 234°
2026-04-24 12:33 24.54303 54.60257 17091 ft 405 kts 234°
2026-04-24 12:33 24.52609 54.57764 17588 ft 410 kts 234°
2026-04-24 12:34 24.50895 54.55243 18130 ft 414 kts 234°
2026-04-24 12:34 24.49170 54.52707 18658 ft 415 kts 234°
2026-04-24 12:34 24.47439 54.50164 19190 ft 416 kts 234°
2026-04-24 12:34 24.45700 54.47611 19627 ft 420 kts 234°
2026-04-24 12:35 24.43934 54.45019 20031 ft 425 kts 234°
2026-04-24 12:35 24.42165 54.42423 20513 ft 427 kts 234°